Location: Medlow Airstrip Trail, Medlow Bath NSW 2780, Australia
(33.6682°S, 150.3233°E)
Time: 23:20:51
(UTC+11:00)

N. Korean satellite - Pass Details

Date: 24 October 2019
Orbit: 456 x 506 km, 97.2° (Epoch: 17 November)

Event Time Altitude Azimuth Distance (km) Brightness Sun altitude
Rises 05:01:43 0° 60° (ENE) 2,608 10.8 -13.8°
Reaches altitude 10° 05:05:27 10° 99° (E) 1,732 10.7 -13.1°
Maximum altitude 05:06:16 11° 112° (ESE) 1,695 10.8 -12.9°
Drops below altitude 10° 05:07:05 10° 125° (SE) 1,735 10.8 -12.8°
Sets 05:10:49 0° 164° (SSE) 2,623 10.9 -12.1°
